Погода в Тюмени

Россия / Тюменская область     57°09′10″N   65°32′03″E
темп.,
°C
ветер,
м/с
пор.,
м/с
влажн.,
%
обл.,
%
осадки,
мм/ч
давл.,
гПа
погр.,
м
23 апреля, пт
пт2323:00+10ююв61159100 0.0 1034391
02:00+8ююв61164100 0.0 1033327
05:00+6ююв51067100 0.0 1034270
08:00+8ю5963100 0.0 1033332
11:00+11ю5854100 0.0 1033590
14:00+14ю61044100 0.0 10321747
17:00+14ююз6948100 0.1 10321856
20:00+11ю61063100 0.2 10321178
24 апреля, сб
сб2423:00+10ююв51054100 0.3 1031412
02:00+8ююв4951100 0.0 1030306
05:00+6ююв3755100 0.0 1029173
08:00+8ююв4649100 0.0 1028330
11:00+10ююв5639100 0.0 1027822
14:00+10ююв6745100 0.0 10261389
17:00+10ююв6748100 0.0 10251561
20:00+8юв61050100 0.0 1024708
25 апреля, вс
вс2523:00+7вюв4857100 0.0 1023334
02:00+6вюв51058100 0.0 1021412
05:00+5вюв51063100 0.0 1020339
08:00+6вюв51058100 0.0 1018603
11:00+9вюв6858100 0.0 10171010
14:00+14юв7103785 0.0 10142150
17:00+13ююв794496 0.0 10132023
20:00+9ююв587595 0.0 1013642
26 апреля, пн
пн2623:00+7ююв41088100 0.1 1011358
02:00+8ююз7118454 1.8 1009773
05:00+5зюз81291100 3.4 1010965
08:00+7зюз711685 0.4 10121181
11:00+11зюз9124460 0.4 10132209
14:00+11зюз91238100 0.0 10142560
17:00+12зюз8123651 0.0 10142976
20:00+9зюз612435 0.0 1014412
27 апреля, вт
вт2723:00+8зюз614490 0.0 1015499
02:00+6юз514622 0.0 1015363
05:00+5юз51366100 0.0 1015291
08:00+8юз5956100 0.0 1014406
11:00+11юз5740100 0.0 10131469
14:00+13юз453883 0.0 10111704
17:00+13ю334192 0.0 10091734
20:00+9ююв466290 0.0 1008148